Skip Page Navigation
NASA JPL Caltech
NASA Logo - Jet Propulsion Laboratory + View the NASA Portal
+ Near-Earth Object (NEO) Program
Search JPL
JPL Home Earth Solar System Stars & Galaxies Technology
JPL Solar System Dynamics
BODIES ORBITS EPHEMERIDES TOOLS PHYSICAL DATA DISCOVERY FAQ SITE MAP
JPL Small-Body Database Browser
Search: [ help ]  
90403 (2003 YE45)
Classification: Apollo [NEO, PHA]          SPK-ID: 2090403
Ephemeris | Orbit Diagram | Orbital Elements | Physical Parameters | Discovery Circumstances | Close-Approach Data ]

[ hide orbit diagram ]
Orbit Diagram
Note: Make sure you have Java enabled on your browser to see the applet. This applet is provided as a 3D orbit visualization tool. The applet was implemented using 2-body methods, and hence should not be used for determining accurate long-term trajectories (over several years or decades) or planetary encounter circumstances. For accurate long-term ephemerides, please instead use our Horizons system.
Orbit Viewer

Additional Notes: the orbits shown in the applet are color coded. The planets are white lines, and the asteroid/comet is a blue line. The bright white line indicates the portion of the orbit that is above the ecliptic plane, and the darker portion is below the ecliptic plane. Likewise for the asteroid/comet orbit, the light blue indicates the portion above the ecliptic plane, and the dark blue the portion below the ecliptic plane.

Orbit Viewer applet originally written and kindly provided by Osamu Ajiki (AstroArts), and further modified by Ron Baalke (JPL).


Orbital Elements at Epoch 2456400.5 (2013-Apr-18.0) TDB
Reference: JPL 124 (heliocentric ecliptic J2000)
 Element Value Uncertainty (1-sigma)   Units 
e .2801973721338258 2.491e-08  
a 1.234678777716848 7.4119e-09 AU
q .8887250287711832 2.8448e-08 AU
i 19.00432046926025 4.0393e-06 deg
node 286.2874572343186 6.7891e-06 deg
peri 306.807046612892 8.2777e-06 deg
M 203.0198842920479 1.1113e-05 deg
tp 2456619.010115187086
(2013-Nov-22.51011519)
1.7396e-05 JED
period 501.1057681579107
1.37
4.5123e-06
1.235e-08
d
yr
n .7184112075248656 6.469e-09 deg/d
Q 1.580632526662513 9.4887e-09 AU
  Orbit Determination Parameters
   # obs. used (total)      687  
   # delay obs. used      1  
   # Doppler obs. used      2  
   data-arc span      8393 days (22.98 yr)  
   first obs. used      1989-09-12  
   last obs. used      2012-09-04  
   planetary ephem.      DE405  
   SB-pert. ephem.      SB405-CPV-2  
   condition code      0  
   fit RMS      .50697  
   data source      ORB  
   producer      Otto Matic  
   solution date      2013-Apr-29 15:38:40  

Additional Information
 Earth MOID = .0361286 AU 
 T_jup = 5.099 
[ show covariance matrix ]

Ephemeris | Orbit Diagram | Orbital Elements | Physical Parameters | Discovery Circumstances | Close-Approach Data ]

Physical Parameter Table
Parameter Symbol Value Units Sigma Reference Notes
absolute magnitude H 17.618 mag .65153 124 autocmod 2.5c

90403 (2003 YE45)          Discovered 2003-Dec-21 by CSS at Catalina (703)
Reference: 20040830/Numbers.arcLast Updated: 2004-09-06

[ show close-approach data ]
Ephemeris | Orbit Diagram | Orbital Elements | Physical Parameters | Discovery Circumstances | Close-Approach Data ]
ABOUT SSD CREDITS/AWARDS PRIVACY/COPYRIGHT GLOSSARY LINKS
FirstGov 2013-May-19 02:59 UT
(server date/time)  
NASA Home Page
Site Manager:   Donald K. Yeomans
Webmaster  Alan B. Chamberlin